Flag for Austria Weather past 2 weeks in Leonding, Upper Austria, Austria

Now
46 °F

Broken clouds.


Feels Like: 39 °F
Forecast: 36 / 49 °F
Wind: 18 mph from West

Location: Linz / Hoersching-Flughafen

Current Time: Mar 27, 2015 at 12:13:55 PM

Latest Report: Mar 27, 2015 at 11:50 AM


Visibility: N/A

Pressure: 30.01 "Hg

Humidity: 76%

Dew point: 39 °F

Location of LeondingLocation

Historic Weather in Leonding — Graph

°F

Leonding temperature yesterday

Maximum temperature yesterday: 52 °F (at 12:20 AM)
Minimum temperature yesterday: 43 °F (at 6:50 AM)
Average temperature yesterday: 48 °F

Past Weeks' High & Low Weather Summary

 TemperatureHumidityPressure
High61 °F (Mar 16, 1:50 PM)100% (Mar 24, 2:20 AM)30.36 "Hg (Mar 24, 2:20 AM)
Low28 °F (Mar 21, 4:50 AM)21% (Mar 19, 2:50 PM)29.59 "Hg (Mar 25, 2:50 PM)
Average44 °F66%30.09 "Hg
* Reported Mar 12 10:20 AM — Mar 27 10:50 AM, Leonding, Weather by CustomWeather, © 2015

Note: Actual official high and low records may vary slightly from our data, if they occured in-between our weather recording intervals... More about our weather records

Advertising

Leonding weather history for previous 24 hours

 ConditionsComfort  
Time TempWeatherWind HumidityBarometerVisibility
10:50 AM
Fri, Mar 27
45 °FBroken clouds.18 mph81%30.01 "HgN/A
10:20 AM45 °FBroken clouds.18 mph81%30.01 "HgN/A
9:50 AM43 °FBroken clouds.18 mph87%30.01 "HgN/A
9:20 AM43 °FPartly sunny.17 mph87%29.98 "HgN/A
8:50 AM43 °FSprinkles. Broken clouds.16 mph87%29.98 "HgN/A
8:20 AM41 °FLight rain. Broken clouds.15 mph93%29.98 "HgN/A
7:50 AM41 °FLight rain. Broken clouds.14 mph87%29.95 "Hg6 mi
7:20 AM41 °FLight rain. Broken clouds.17 mph87%29.95 "Hg4 mi
6:50 AM41 °FLight rain. Fog.17 mph87%29.95 "Hg3 mi
6:20 AM41 °FLight rain. Fog.14 mph93%29.92 "Hg3 mi
5:50 AM41 °FLight rain. Partly cloudy.15 mph93%29.92 "Hg3 mi
5:20 AM41 °FLight rain. Passing clouds.14 mph93%29.89 "Hg4 mi
4:50 AM41 °FLight rain. Fog.10 mph93%29.89 "Hg3 mi
3:50 AM41 °FRain. Passing clouds.14 mph93%29.89 "Hg5 mi
3:20 AM41 °FRain. Passing clouds.10 mph100%29.89 "Hg3 mi
2:50 AM43 °FLight rain. Passing clouds.13 mph87%29.86 "Hg4 mi
2:20 AM43 °FLight rain. Partly cloudy.15 mph87%29.86 "Hg5 mi
1:50 AM43 °FLight rain. Passing clouds.14 mph87%29.86 "Hg4 mi
1:20 AM43 °FLight rain. Partly cloudy.17 mph87%29.86 "Hg4 mi
12:50 AM43 °FLight rain. Partly cloudy.17 mph87%29.86 "Hg4 mi
12:20 AM43 °FLight rain. Fog.15 mph93%29.86 "Hg3 mi
11:50 PM
Thu, Mar 26
45 °FLight rain. Fog.15 mph87%29.86 "Hg3 mi
11:20 PM45 °FLight rain. Fog.15 mph87%29.86 "Hg3 mi
10:50 PM45 °FLight rain. Fog.12 mph93%29.83 "Hg3 mi
10:20 PM45 °FDrizzle. Fog.15 mph87%29.83 "Hg3 mi
9:50 PM45 °FDrizzle. Fog.17 mph87%29.83 "Hg3 mi
9:20 PM45 °FDrizzle. Fog.15 mph87%29.83 "Hg3 mi
8:50 PM45 °FDrizzle. Fog.16 mph87%29.83 "Hg3 mi
8:20 PM46 °FDrizzle. Fog.15 mph87%29.83 "Hg3 mi
7:50 PM46 °FFog.15 mph87%29.80 "Hg3 mi
7:20 PM46 °FDrizzle. Fog.12 mph87%29.80 "Hg3 mi
6:50 PM46 °FLight rain. Fog.14 mph87%29.80 "Hg3 mi
6:20 PM46 °FLight rain. Fog.10 mph87%29.80 "Hg3 mi
5:50 PM48 °FFog.12 mph76%29.77 "Hg3 mi
5:20 PM48 °FFog.15 mph76%29.77 "Hg3 mi
4:50 PM50 °FBroken clouds.14 mph71%29.77 "Hg4 mi
4:20 PM50 °FBroken clouds.13 mph71%29.77 "Hg4 mi
3:50 PM50 °FBroken clouds.14 mph71%29.77 "Hg4 mi
3:20 PM50 °FBroken clouds.15 mph71%29.77 "Hg4 mi
2:50 PM50 °FBroken clouds.14 mph71%29.77 "Hg4 mi
2:20 PM50 °FPartly sunny.14 mph71%29.77 "Hg4 mi
1:50 PM50 °FBroken clouds.14 mph71%29.77 "Hg4 mi
1:20 PM50 °FLight rain. Broken clouds.14 mph76%29.77 "Hg4 mi
12:50 PM50 °FLight rain. Broken clouds.10 mph76%29.77 "Hg4 mi
12:20 PM50 °FLight rain. Fog.14 mph76%29.77 "Hg3 mi
Weather by CustomWeather, © 2015

See weather overviewHow to use our weather pages